Total_Precipitation_Accumulation
0.00 0.00 0.00 0.00 0.00 0.00 0.00 0.00 0.00 0.00 0.00 0.00 0.00 0.00 0.00 0.00 0.00 0.00 0.01 0.01 0.02 0.06 0.15 0.30 0.54 0.78 0.96 1.31 1.22 0.86 0.54 0.37 0.32 0.33 0.32 0.37 0.39 0.37 0.36 0.35 0.31 0.30 0.30 0.31
0.00 0.00 0.00 0.00 0.00 0.00 0.00 0.00 0.00 0.00 0.00 0.00 0.00 0.00 0.00 0.00 0.00 0.00 0.00 0.01 0.02 0.06 0.14 0.23 0.40 0.52 0.54 0.62 0.72 0.74 0.70 0.58 0.53 0.59 0.66 0.80 0.81 0.72 0.63 0.56 0.52 0.54 0.57 0.53
0.00 0.00 0.00 0.00 0.00 0.00 0.00 0.00 0.00 0.00 0.00 0.00 0.00 0.00 0.00 0.00 0.00 0.00 0.00 0.01 0.01 0.03 0.08 0.16 0.22 0.30 0.40 0.51 0.66 0.69 0.66 0.65 0.70 0.81 0.89 0.99 0.99 0.95 0.86 0.75 0.74 0.72 0.65 0.58
0.00 0.00 0.00 0.00 0.00 0.00 0.00 0.00 0.00 0.00 0.00 0.00 0.00 0.00 0.00 0.00 0.00 0.01 0.01 0.01 0.02 0.02 0.04 0.09 0.14 0.20 0.30 0.48 0.59 0.60 0.62 0.72 0.88 1.07 1.17 1.22 1.21 1.09 0.97 0.88 0.78 0.66 0.54 0.46
0.00 0.00 0.00 0.00 0.00 0.00 0.00 0.00 0.00 0.00 0.00 0.00 0.00 0.00 0.00 0.00 0.00 0.00 0.01 0.01 0.01 0.02 0.03 0.07 0.12 0.18 0.30 0.44 0.54 0.60 0.66 0.87 1.12 1.28 1.31 1.30 1.18 1.00 0.88 0.72 0.60 0.50 0.41 0.34
0.00 0.00 0.00 0.00 0.00 0.00 0.00 0.00 0.00 0.00 0.00 0.00 0.00 0.00 0.00 0.00 0.00 0.00 0.01 0.01 0.02 0.03 0.04 0.08 0.12 0.17 0.27 0.38 0.51 0.60 0.74 0.97 1.13 1.22 1.29 1.25 1.12 0.94 0.75 0.57 0.45 0.36 0.29 0.24
0.00 0.00 0.00 0.00 0.00 0.00 0.00 0.00 0.00 0.00 0.00 0.00 0.00 0.00 0.00 0.00 0.01 0.01 0.01 0.02 0.03 0.03 0.06 0.10 0.14 0.18 0.26 0.39 0.53 0.67 0.83 0.97 0.99 0.97 0.94 0.89 0.81 0.69 0.55 0.45 0.35 0.28 0.22 0.18
0.00 0.00 0.00 0.00 0.00 0.00 0.00 0.00 0.00 0.00 0.00 0.00 0.00 0.00 0.01 0.01 0.02 0.02 0.03 0.03 0.04 0.05 0.08 0.13 0.18 0.23 0.31 0.41 0.49 0.58 0.65 0.69 0.71 0.68 0.67 0.65 0.58 0.50 0.42 0.31 0.22 0.17 0.12 0.10
0.00 0.00 0.00 0.00 0.00 0.00 0.00 0.00 0.00 0.00 0.00 0.00 0.00 0.00 0.01 0.01 0.02 0.03 0.05 0.07 0.09 0.10 0.14 0.19 0.24 0.30 0.38 0.43 0.44 0.43 0.41 0.38 0.38 0.37 0.35 0.30 0.25 0.23 0.21 0.16 0.10 0.08 0.06 0.05
0.00 0.00 0.00 0.00 0.00 0.00 0.00 0.00 0.00 0.00 0.00 0.00 0.00 0.00 0.01 0.02 0.03 0.04 0.06 0.10 0.12 0.14 0.20 0.27 0.30 0.33 0.33 0.29 0.26 0.23 0.21 0.21 0.21 0.20 0.16 0.14 0.12 0.10 0.09 0.07 0.06 0.06 0.05 0.04
0.00 0.00 0.00 0.00 0.00 0.00 0.00 0.00 0.00 0.00 0.00 0.00 0.00 0.01 0.01 0.02 0.03 0.06 0.10 0.13 0.14 0.21 0.30 0.31 0.31 0.27 0.22 0.17 0.15 0.14 0.13 0.12 0.11 0.10 0.08 0.07 0.07 0.06 0.05 0.05 0.05 0.05 0.05 0.05
0.00 0.00 0.00 0.00 0.00 0.00 0.00 0.00 0.00 0.00 0.00 0.00 0.00 0.01 0.01 0.02 0.04 0.08 0.12 0.18 0.25 0.28 0.32 0.29 0.27 0.23 0.17 0.13 0.10 0.09 0.09 0.09 0.08 0.07 0.06 0.06 0.06 0.05 0.05 0.05 0.05 0.05 0.06 0.07
0.00 0.00 0.00 0.00 0.00 0.00 0.00 0.00 0.00 0.00 0.00 0.00 0.01 0.04 0.03 0.03 0.06 0.09 0.13 0.21 0.29 0.36 0.38 0.33 0.24 0.18 0.14 0.11 0.09 0.10 0.12 0.11 0.09 0.07 0.06 0.05 0.06 0.06 0.07 0.07 0.08 0.08 0.09 0.10
0.00 0.00 0.00 0.00 0.00 0.00 0.00 0.01 0.01 0.01 0.01 0.01 0.02 0.06 0.08 0.10 0.12 0.15 0.22 0.26 0.31 0.39 0.38 0.28 0.21 0.17 0.15 0.14 0.15 0.15 0.14 0.12 0.10 0.08 0.07 0.07 0.08 0.10 0.11 0.11 0.12 0.13 0.14 0.15
0.00 0.00 0.00 0.00 0.00 0.00 0.01 0.01 0.02 0.03 0.03 0.03 0.04 0.09 0.12 0.18 0.23 0.25 0.27 0.29 0.31 0.34 0.32 0.28 0.26 0.24 0.22 0.20 0.18 0.16 0.15 0.13 0.10 0.10 0.10 0.12 0.14 0.16 0.17 0.17 0.17 0.18 0.19 0.17
0.00 0.00 0.00 0.00 0.00 0.00 0.01 0.01 0.01 0.02 0.03 0.04 0.06 0.14 0.17 0.22 0.25 0.27 0.27 0.26 0.27 0.28 0.31 0.33 0.32 0.29 0.25 0.23 0.22 0.21 0.20 0.20 0.19 0.21 0.24 0.23 0.22 0.22 0.22 0.22 0.22 0.23 0.21 0.19
0.01 0.01 0.01 0.00 0.00 0.00 0.01 0.01 0.01 0.01 0.02 0.03 0.07 0.11 0.12 0.16 0.18 0.20 0.21 0.22 0.25 0.30 0.34 0.33 0.28 0.27 0.29 0.31 0.33 0.37 0.37 0.35 0.35 0.35 0.33 0.30 0.27 0.26 0.25 0.22 0.24 0.22 0.18 0.14
0.02 0.01 0.01 0.01 0.01 0.03 0.01 0.02 0.02 0.03 0.05 0.06 0.07 0.07 0.08 0.10 0.13 0.15 0.16 0.20 0.24 0.29 0.29 0.27 0.26 0.29 0.36 0.44 0.49 0.47 0.44 0.42 0.40 0.38 0.35 0.30 0.24 0.22 0.21 0.22 0.20 0.14 0.10 0.08
0.03 0.04 0.06 0.05 0.05 0.05 0.05 0.03 0.03 0.05 0.06 0.05 0.07 0.07 0.08 0.08 0.11 0.12 0.12 0.16 0.21 0.22 0.23 0.26 0.31 0.40 0.50 0.54 0.52 0.48 0.45 0.41 0.38 0.34 0.27 0.20 0.16 0.16 0.14 0.11 0.09 0.08 0.08 0.07
0.05 0.07 0.14 0.15 0.16 0.16 0.14 0.05 0.04 0.07 0.12 0.08 0.07 0.07 0.08 0.10 0.16 0.11 0.08 0.10 0.13 0.16 0.22 0.32 0.44 0.53 0.56 0.52 0.45 0.41 0.37 0.31 0.26 0.20 0.16 0.13 0.11 0.08 0.05 0.05 0.07 0.07 0.07 0.06
0.16 0.16 0.18 0.25 0.33 0.33 0.17 0.08 0.08 0.15 0.16 0.14 0.12 0.12 0.13 0.14 0.17 0.13 0.10 0.11 0.14 0.21 0.30 0.41 0.48 0.47 0.43 0.37 0.31 0.29 0.25 0.20 0.14 0.10 0.08 0.07 0.05 0.03 0.02 0.03 0.05 0.05 0.04 0.03
0.27 0.30 0.31 0.33 0.41 0.43 0.20 0.12 0.16 0.18 0.12 0.13 0.13 0.14 0.16 0.19 0.17 0.16 0.17 0.20 0.23 0.30 0.37 0.38 0.36 0.32 0.26 0.20 0.18 0.16 0.13 0.08 0.05 0.04 0.04 0.03 0.01 0.01 0.01 0.02 0.03 0.02 0.02 0.02
0.29 0.30 0.39 0.46 0.50 0.35 0.18 0.13 0.13 0.13 0.14 0.15 0.17 0.21 0.25 0.28 0.29 0.29 0.30 0.32 0.33 0.32 0.32 0.29 0.23 0.18 0.12 0.09 0.09 0.08 0.06 0.03 0.03 0.03 0.03 0.01 0.01 0.01 0.01 0.02 0.02 0.01 0.01 0.01
0.45 0.30 0.32 0.39 0.40 0.29 0.18 0.12 0.10 0.12 0.14 0.18 0.24 0.28 0.28 0.28 0.27 0.28 0.31 0.32 0.31 0.28 0.23 0.16 0.11 0.08 0.06 0.04 0.03 0.02 0.01 0.01 0.02 0.03 0.02 0.01 0.01 0.01 0.01 0.01 0.01 0.01 0.01 0.01
0.43 0.42 0.44 0.47 0.43 0.32 0.25 0.18 0.17 0.22 0.25 0.28 0.29 0.26 0.24 0.22 0.19 0.18 0.18 0.19 0.17 0.14 0.10 0.07 0.05 0.04 0.02 0.01 0.01 0.01 0.01 0.01 0.02 0.02 0.01 0.01 0.01 0.01 0.01 0.01 0.00 0.01 0.01 0.01
0.31 0.37 0.51 0.61 0.47 0.35 0.33 0.30 0.29 0.29 0.26 0.22 0.19 0.19 0.20 0.19 0.15 0.13 0.12 0.10 0.09 0.07 0.05 0.04 0.03 0.02 0.01 0.01 0.00 0.00 0.00 0.01 0.01 0.01 0.01 0.01 0.01 0.01 0.01 0.02 0.02 0.01 0.00 0.01